{"data":{"norad_id":64483,"intl_designator":"2025-133M","name":"STARLINK-34420","alt_names":[],"object_type":"PAYLOAD","status":"ACTIVE","operator":null,"country":"US","launch_date":"2025-06-23","launch_site_code":"AFETR","launch_vehicle":null,"mission":null,"orbit_class":"UNKNOWN","rcs_meters":null,"size_class":null,"mass_kg":null,"dimensions":null,"purposes":["comms"],"wikipedia_slug":null,"has_3d_model":false,"image_url":null,"decayed_at":null,"tle_current":{"epoch":"2026-05-25T02:31:04.757952Z","epoch_age_seconds":62376,"freshness":"FRESH","line1":"1 64483U 25133M   26145.10491618 -.00002877  00000+0 -85104-4 0  9994","line2":"2 64483  53.1572 121.4498 0001019  81.5803 278.5313 15.30179758 52894","mean_motion":15.30179758,"eccentricity":0.0001019,"inclination_deg":53.1572,"raan_deg":121.4498,"arg_perigee_deg":81.5803,"mean_anomaly_deg":278.5313,"bstar":-8.5104e-5,"rev_number":5289,"period_min":94.106590580059,"perigee_km":474.57714631427,"apogee_km":475.97387178361,"semimajor_km":6853.4125090489,"source":"CELESTRAK","updated_at":"2026-05-25T13:38:20.458952Z"}}}